Theta_e
301 297 296 295 295 294 293 293 292 291 291 291 290 290 290 290 291 291 292 292 293 293 293 293 293 293 292 294 294 292 292 292 291 290 290 290 289 288 286 285 285 285
297 296 296 295 295 294 294 294 292 292 292 291 291 291 291 291 291 291 291 292 292 292 292 292 292 291 291 291 291 290 289 289 287 288 287 287 286 286 285 285 284 284
296 295 295 295 294 293 293 293 293 292 292 292 293 292 291 291 290 291 291 292 292 292 291 291 291 291 290 289 289 289 288 287 286 286 286 286 285 285 284 285 284 284
295 295 295 294 294 292 293 292 292 292 292 291 291 291 291 290 291 290 291 291 291 291 290 290 289 289 288 288 287 287 286 286 285 285 285 285 285 285 284 284 284 283
294 294 294 294 293 292 292 292 291 291 291 291 291 291 290 290 290 290 290 290 290 289 289 288 288 288 287 287 287 286 285 285 285 285 284 284 285 284 284 284 283 283
294 293 294 293 293 292 291 291 291 291 290 290 290 290 290 289 289 289 289 289 288 288 287 286 286 286 286 286 286 285 285 285 284 285 284 283 283 283 283 283 282 281
293 293 293 293 292 292 291 291 291 290 290 290 290 290 289 289 288 288 288 287 287 287 286 285 285 285 285 285 286 285 285 285 284 284 283 283 283 282 282 282 282 281
293 292 293 293 291 291 290 290 289 289 289 289 288 289 289 288 288 288 287 287 286 286 286 285 285 285 285 285 285 284 284 284 284 283 283 282 282 281 281 282 281 280
292 292 292 292 291 291 290 291 290 290 288 287 287 287 288 288 287 287 287 286 285 286 285 285 285 285 285 285 285 284 283 283 283 283 282 281 281 281 281 281 281 280
291 291 290 290 289 290 289 290 289 289 288 286 286 286 286 286 286 286 285 285 285 285 285 285 284 284 285 285 284 284 283 282 283 283 283 282 282 281 281 280 280 279
290 290 290 289 289 289 289 289 288 287 287 286 285 285 285 286 285 286 285 285 285 284 284 284 284 284 284 284 284 284 283 282 282 283 283 282 282 281 281 281 280 280
291 291 290 288 288 288 289 288 287 287 286 285 285 284 284 285 285 285 285 285 284 284 284 284 284 284 284 284 283 283 283 283 283 282 282 282 281 281 281 281 281 280
289 289 288 288 288 288 288 287 286 286 286 284 284 284 284 284 284 284 284 284 284 284 284 284 284 284 283 283 283 283 283 282 282 282 282 281 281 281 281 281 281 280
289 289 288 288 288 288 288 287 287 286 284 284 284 283 283 283 283 283 283 284 284 283 284 284 283 283 283 283 283 282 282 281 281 281 281 281 281 281 281 281 281 280
288 288 288 288 287 287 287 286 286 284 284 283 283 283 284 284 283 283 283 283 283 283 282 283 282 282 282 282 282 282 282 281 281 281 280 280 280 280 280 280 280 280
288 287 287 287 286 286 286 285 283 283 282 282 282 283 283 283 283 283 283 283 283 282 282 282 282 282 282 283 282 281 281 281 281 280 280 280 279 279 279 279 279 279
286 286 286 285 285 285 284 283 283 282 282 282 282 282 282 282 282 282 283 283 283 283 282 282 282 281 283 284 283 283 281 280 280 280 280 279 279 279 278 278 278 278
285 285 285 284 284 283 283 282 282 282 282 282 281 282 282 282 282 282 283 283 283 283 282 282 281 282 284 284 284 283 282 281 280 280 279 279 279 279 278 278 278 277
285 285 284 284 283 283 283 282 282 282 281 281 281 281 281 281 281 282 282 282 282 282 282 282 281 283 284 284 284 284 283 281 280 280 279 279 279 278 278 278 277 277
285 284 284 283 283 283 282 281 281 281 281 281 281 281 281 281 281 281 281 281 281 281 281 281 281 283 284 284 284 284 283 281 280 279 279 279 278 278 278 278 277 277
284 284 283 283 283 282 282 281 281 281 281 281 281 281 281 281 281 281 281 281 281 281 281 281 280 283 284 285 284 284 284 282 279 278 278 278 278 278 278 278 278 278
284 284 283 283 282 282 281 281 281 281 280 281 281 282 282 282 282 282 281 281 281 281 281 280 280 283 284 285 285 285 284 281 279 278 278 278 278 278 278 278 278 278
284 284 283 282 282 282 281 280 280 281 281 282 281 281 281 281 281 281 281 281 281 280 280 280 280 282 284 284 285 285 284 281 279 278 278 278 277 278 277 278 278 278
284 284 283 282 282 281 281 281 281 281 281 282 281 281 280 281 281 281 281 281 281 280 280 280 279 281 284 284 285 285 284 281 279 278 277 278 277 278 277 277 277 278
284 284 284 283 281 282 282 281 281 281 282 282 282 281 281 281 281 280 280 280 280 280 281 280 279 280 283 284 285 285 284 282 279 278 277 277 277 277 277 277 277 278
285 284 283 282 281 282 282 282 282 281 281 281 281 281 281 281 280 280 279 279 279 279 279 279 279 279 282 284 285 285 285 283 281 278 277 277 277 276 276 276 276 276
Wind_Speed
9 11 13 11 9 9 11 12 11 10 9 8 10 10 11 10 11 11 9 9 8 9 8 7 7 7 6 5 5 5 5 6 5 4 5 5 5 6 5 5 5 4
11 9 10 10 9 8 8 8 10 10 10 10 7 9 8 10 11 11 11 11 8 8 8 8 7 8 8 7 6 6 5 5 5 2 5 6 5 6 6 6 5 5
9 11 14 15 13 13 11 9 9 9 10 9 8 9 9 9 11 10 10 8 8 8 7 8 8 8 7 6 6 6 5 6 6 5 5 6 6 6 6 6 5 5
11 10 10 10 10 13 12 11 10 9 9 10 10 10 10 9 9 9 7 9 8 8 8 9 8 8 7 7 6 5 6 5 5 6 6 5 5 6 6 6 5 5
11 10 9 9 10 10 11 10 13 12 11 8 7 9 10 11 11 9 8 7 7 8 8 8 8 8 8 7 6 7 7 7 7 7 7 7 6 6 6 6 6 7
9 9 10 10 11 12 12 13 12 12 12 11 11 10 10 11 9 11 11 11 9 9 8 8 9 8 9 9 8 7 7 7 7 7 8 8 7 5 4 5 6 7
13 10 11 9 11 12 12 12 11 11 11 12 11 11 11 11 10 10 9 8 9 8 9 8 9 9 8 8 8 8 7 8 9 8 9 7 7 7 6 6 6 7
14 10 13 11 12 11 11 12 11 10 11 11 12 11 12 12 13 10 10 10 9 10 10 9 9 9 9 8 8 9 8 5 8 8 9 8 8 8 7 5 7 8
13 11 12 14 13 11 12 13 12 14 9 9 9 10 10 11 11 11 11 10 9 10 10 10 10 9 9 9 9 10 10 8 7 9 10 10 9 9 8 8 8 7
14 11 15 14 14 12 12 12 11 11 12 8 8 8 10 8 9 10 9 9 10 10 10 10 10 9 9 9 10 10 10 11 10 9 9 9 10 10 10 9 9 8
13 14 16 15 14 12 13 12 11 11 11 9 8 8 8 10 9 10 10 10 10 11 11 10 10 10 10 10 8 8 9 9 9 8 8 9 9 9 9 10 10 9
17 16 16 13 15 12 13 13 11 12 13 10 9 9 8 9 11 9 9 11 10 11 11 11 11 11 11 11 11 10 9 9 9 9 8 9 9 9 10 9 9 10
11 12 12 13 14 12 12 12 12 12 12 10 9 9 11 11 10 9 7 9 10 10 11 11 11 11 11 11 11 11 11 10 9 10 10 8 9 10 9 9 9 9
12 11 11 13 12 12 12 12 13 11 9 8 9 10 12 12 11 10 9 8 9 9 9 10 11 11 11 12 11 11 11 11 11 10 10 9 9 9 9 9 9 9
8 7 9 11 12 12 12 13 13 10 10 10 10 10 10 11 10 11 11 10 9 9 10 9 10 10 10 11 12 11 10 11 11 10 10 10 9 9 9 9 9 9
11 10 10 10 11 13 13 11 10 10 10 10 11 11 10 11 12 12 12 12 12 11 10 9 9 6 8 12 10 9 10 8 8 9 9 9 10 10 10 9 9 8
11 10 9 11 11 9 10 11 11 10 11 11 11 11 12 12 12 13 12 12 13 13 13 10 9 8 15 16 15 15 10 9 9 9 9 9 10 10 10 10 9 8
11 11 10 10 10 10 11 10 10 11 11 11 11 12 12 11 12 13 12 12 11 12 12 10 8 11 20 19 18 18 13 10 9 9 9 9 9 9 9 9 10 9
11 12 11 10 11 11 11 11 11 12 11 11 13 11 10 12 12 12 12 12 11 12 11 9 8 16 20 20 19 19 16 11 8 8 9 9 9 10 10 10 9 9
11 11 11 11 10 11 12 11 11 12 11 10 10 10 11 12 12 13 12 12 11 11 10 9 9 16 21 20 19 19 18 13 8 9 9 9 9 10 9 10 10 10
11 11 11 11 11 11 11 11 12 11 11 11 11 12 14 14 14 14 12 12 11 10 9 9 8 20 21 21 20 21 20 15 8 8 8 8 9 10 10 10 10 9
10 11 11 11 12 11 12 12 11 11 12 11 11 10 10 10 10 10 11 12 12 11 10 10 9 21 21 22 22 21 22 11 9 9 9 9 9 9 9 9 9 10
12 11 10 11 12 13 13 12 11 13 11 10 11 11 11 11 11 11 10 11 11 11 11 10 9 19 23 23 23 23 19 10 10 9 9 9 9 9 8 9 10 11
12 12 11 11 12 14 13 11 11 10 12 10 13 12 12 11 10 9 9 11 12 13 12 11 10 18 24 23 24 25 19 11 10 9 9 9 8 9 8 9 10 14
12 12 11 12 11 13 11 12 13 12 10 10 11 9 9 9 8 9 9 8 9 11 12 12 10 16 25 24 25 25 19 10 10 9 10 9 9 9 10 9 9 12
12 13 12 12 11 11 10 10 10 10 11 11 10 9 9 9 9 9 10 9 8 10 10 12 10 11 18 24 24 24 24 12 9 10 12 12 11 10 10 10 10 10
Wind_Direction
168 172 171 173 176 176 173 174 173 170 174 170 172 167 166 157 160 161 154 155 156 153 152 150 147 143 145 152 164 159 157 144 140 142 142 136 133 132 125 134 131 136
171 166 169 162 157 168 178 172 171 175 171 170 166 158 162 160 165 165 163 159 152 148 151 148 149 150 155 161 161 155 140 136 124 105 130 128 126 124 125 129 130 126
180 172 176 175 169 170 172 171 171 175 173 166 149 163 163 167 163 166 159 148 147 148 148 145 146 146 147 146 149 145 141 134 132 139 126 129 130 132 130 134 135 142
175 181 178 166 156 158 161 164 173 171 167 166 172 164 161 162 161 158 145 150 147 152 147 147 145 141 142 140 135 124 122 119 126 132 123 122 132 134 139 138 133 131
166 167 172 165 160 152 155 162 175 176 174 164 147 158 158 163 160 156 159 147 147 146 148 144 142 144 144 139 136 131 138 136 140 140 138 138 139 137 135 140 140 138
169 167 171 167 161 157 158 169 174 175 172 167 171 165 166 160 159 166 164 159 156 150 143 141 146 148 149 147 147 146 147 146 152 147 140 138 137 131 130 139 136 135
172 167 171 166 160 161 160 163 164 168 173 170 162 174 162 164 162 167 163 149 143 146 147 148 150 149 150 149 152 150 149 146 148 150 143 140 139 136 136 139 141 133
169 163 176 169 169 169 171 173 169 163 160 159 166 165 166 165 168 164 161 155 150 152 152 153 152 150 151 153 148 147 144 143 150 149 144 140 142 145 148 145 143 140
162 163 170 177 173 175 177 180 178 181 165 149 155 158 165 169 165 161 159 155 152 155 156 154 154 152 155 157 153 153 153 155 154 154 151 152 154 155 153 149 144 142
160 158 171 177 179 183 178 178 174 175 173 155 147 152 162 152 152 156 149 150 157 157 154 151 153 154 156 158 157 158 156 158 159 160 158 158 156 153 155 154 151 146
160 162 174 179 182 181 178 174 173 173 174 159 149 155 155 152 153 157 160 163 162 161 155 155 159 158 159 157 155 154 152 153 159 159 157 156 155 154 156 159 158 158
182 180 180 173 177 176 175 172 171 175 176 173 163 151 149 155 158 160 163 165 162 158 156 157 161 164 164 163 162 160 158 157 158 158 155 154 156 157 161 165 162 160
177 178 167 167 174 172 167 165 170 174 175 165 163 158 159 159 159 154 155 158 157 156 161 162 161 165 167 167 165 165 165 162 159 160 161 157 157 161 165 167 166 163
184 179 165 168 169 170 171 170 169 167 160 154 159 157 163 165 162 160 155 157 160 160 163 164 166 169 170 169 169 168 165 166 163 162 160 159 159 161 165 169 169 171
156 162 171 169 165 168 170 169 171 156 149 156 159 160 167 166 159 158 158 164 165 167 168 169 172 176 175 174 170 165 163 161 161 160 161 161 160 163 170 173 175 178
170 176 178 169 167 172 173 161 147 149 152 155 162 166 163 163 162 166 171 174 173 174 173 174 182 184 166 160 151 151 151 147 152 159 161 162 162 166 172 177 178 179
162 167 171 172 170 157 148 152 155 152 156 160 163 167 167 165 167 173 180 179 176 175 181 186 184 177 160 167 160 150 148 153 158 162 166 165 169 171 173 174 177 179
162 163 169 171 164 156 156 152 152 155 160 163 166 168 172 168 173 180 180 177 177 181 183 184 182 158 172 173 168 164 159 160 161 163 166 171 175 175 173 172 174 174
164 166 167 170 168 159 157 157 160 162 163 169 174 173 165 173 180 179 182 180 178 179 182 177 175 169 177 174 172 170 163 158 168 166 172 177 177 178 175 174 172 169
171 168 169 171 164 159 161 161 157 166 169 168 167 167 173 180 183 184 184 183 181 180 176 174 173 172 177 175 175 173 171 171 170 171 176 178 178 180 180 177 174 170
174 173 173 173 168 166 162 162 163 165 170 174 175 179 182 185 184 185 186 182 180 178 175 172 176 172 178 177 176 177 177 177 170 173 177 181 183 186 184 180 177 174
177 175 176 172 169 168 166 166 170 171 172 174 177 182 186 182 183 184 182 182 181 176 171 174 169 173 179 179 181 182 179 179 180 179 184 184 186 186 184 184 181 181
181 180 176 172 173 172 173 171 167 178 176 175 178 185 183 184 182 184 181 178 175 178 180 178 168 177 182 183 183 183 180 186 184 184 186 186 189 184 187 186 189 187
183 184 181 179 178 180 176 173 173 179 180 176 180 184 183 183 181 178 181 184 183 184 183 176 172 179 184 186 187 187 185 183 180 182 185 187 187 186 187 194 195 189
180 181 184 187 183 182 181 174 178 178 176 169 179 179 181 180 181 177 177 182 186 187 179 181 178 180 187 190 190 190 188 184 177 183 186 191 188 189 192 191 190 186
181 183 182 183 175 179 182 177 173 167 165 166 175 177 180 183 177 184 183 189 182 188 186 195 183 180 190 193 193 194 193 188 181 185 196 194 191 188 187 194 189 187